Weather History for Manhattan, KS

Change the Weather History Date:

Saturday, September 25, 2010

  Actual Average Record
Temperature  
Mean Temperature 62 °F 64 °F  
Max Temperature 75 °F 77 °F 93 °F (1998)
Min Temperature 51 °F 51 °F 37 °F (2001)
Degree Days  
Heating Degree Days 3 4  
Month to date heating degree days 42  
Since 1 July heating degree days 45  
Cooling Degree Days 0 3  
Month to date cooling degree days 141  
Year to date cooling degree days 1324  
Growing Degree Days 12 (Base 50)    
Moisture  
Dew Point 56 °F    
Average Humidity 86    
Maximum Humidity 96    
Minimum Humidity 66    
Precipitation  
Precipitation 0.65 in 0.09 in 0.69 in (1996)
Month to date precipitation 2.75  
Year to date precipitation 27.29  
Sea Level Pressure  
Sea Level Pressure 30.11 in    
Wind  
Wind Speed 5 mph (NNE)    
Max Wind Speed 25 mph    
Max Gust Speed 33 mph    
Visibility 9 miles    
Events Fog , Rain , Thunderstorm    
T = Trace of Precipitation, MM = Missing Value Source: NWS Daily Summary

Daily Weather History Graph

Daily Weather History Graph

Search for Another Location

Airport:

Trip Planner

Search our weather history database for the weather conditions in past years. The results will help you decide how hot, cold, wet, or windy it might be!

Date:

Astronomy

Sep. 25, 2010 Rise Set
Actual Time 7:17 AM CDT 7:18 PM CDT
Civil Twilight 6:50 AM CDT 7:45 PM CDT
Nautical Twilight 6:19 AM CDT 8:16 PM CDT
Astronomical Twilight 5:47 AM CDT 8:48 PM CDT
Moon 8:06 PM CDT (9/25) 9:31 AM CDT (9/25)
Length of Visible Light 12h 55m
Length of Day
12h 01m
Waning Gibbous, 95% of the Moon is Illuminated
Sep 25
Waning Gibbous
Sep 30
Last Quarter
Oct 7
New
Oct 14
First Quarter
Oct 22
Full

Hourly Weather History & Observations

Time (CDT) Temp. Dew Point Humidity Pressure Visibility Wind Dir Wind Speed Gust Speed Precip Events Conditions
12:52 AM 54.0 °F 52.0 °F 93% 30.17 in 10.0 mi Calm Calm - N/A   Clear
1:52 AM 54.0 °F 52.0 °F 93% 30.15 in 10.0 mi Calm Calm - N/A   Clear
2:52 AM 53.1 °F 52.0 °F 96% 30.12 in 9.0 mi WSW 3.5 mph - N/A   Clear
3:52 AM 53.1 °F 51.1 °F 93% 30.12 in 10.0 mi Calm Calm - N/A   Clear
4:52 AM 53.1 °F 51.1 °F 93% 30.14 in 10.0 mi Calm Calm - N/A   Clear
5:52 AM 55.9 °F 53.1 °F 90% 30.16 in 10.0 mi Calm Calm - 0.01 in   Clear
6:52 AM 57.0 °F 53.1 °F 87% 30.16 in 10.0 mi Calm Calm - N/A   Partly Cloudy
7:52 AM 57.9 °F 54.0 °F 87% 30.14 in 10.0 mi Calm Calm - N/A   Overcast
8:52 AM 61.0 °F 55.0 °F 81% 30.12 in 10.0 mi SSW 8.1 mph - N/A   Overcast
9:52 AM 63.0 °F 55.9 °F 78% 30.10 in 10.0 mi SSW 4.6 mph - N/A   Overcast
10:36 AM 64.4 °F 55.4 °F 73% 30.12 in 10.0 mi SW 5.8 mph - N/A Thunderstorm Overcast
10:52 AM 64.0 °F 55.9 °F 75% 30.11 in 10.0 mi SSW 5.8 mph - N/A Thunderstorm Overcast
11:21 AM 66.2 °F 57.2 °F 73% 30.08 in 10.0 mi South 10.4 mph - N/A Thunderstorm Mostly Cloudy
11:31 AM 66.2 °F 57.2 °F 73% 30.07 in 10.0 mi South 10.4 mph - N/A Thunderstorm Scattered Clouds
11:52 AM 68.0 °F 57.0 °F 68% 30.04 in 10.0 mi SSW 16.1 mph 19.6 mph N/A Thunderstorm Clear
12:35 PM 62.6 °F 57.2 °F 82% 30.08 in 1.2 mi NNE 25.3 mph 31.1 mph 0.23 in Rain , Thunderstorm Heavy Thunderstorms and Rain
12:43 PM 62.6 °F 60.8 °F 94% 30.06 in 0.5 mi NNE 8.1 mph 31.1 mph 0.55 in Fog , Rain , Thunderstorm Heavy Thunderstorms and Rain
12:52 PM 62.1 °F 60.1 °F 93% 30.07 in 1.8 mi NNE 3.5 mph 16.1 mph 0.63 in Rain , Thunderstorm Heavy Thunderstorms and Rain
12:57 PM 62.6 °F 60.8 °F 94% 30.09 in 3.0 mi North 8.1 mph - 0.01 in Rain , Thunderstorm Light Thunderstorms and Rain
1:00 PM 62.6 °F 60.8 °F 94% 30.08 in 6.0 mi NNE 4.6 mph - 0.01 in Rain Light Rain
1:23 PM 62.6 °F 60.8 °F 94% 30.08 in 10.0 mi North 4.6 mph - 0.01 in Rain Light Rain
1:52 PM 64.0 °F 62.1 °F 93% 30.07 in 10.0 mi Variable 3.5 mph - 0.01 in   Overcast
2:04 PM 64.4 °F 62.6 °F 94% 30.06 in 10.0 mi ENE 6.9 mph - N/A   Overcast
2:52 PM 69.1 °F 64.0 °F 84% 30.05 in 10.0 mi ENE 3.5 mph - N/A   Clear
3:52 PM 72.0 °F 64.0 °F 76% 30.04 in 10.0 mi NE 12.7 mph - N/A   Mostly Cloudy
4:52 PM 73.0 °F 61.0 °F 66% 30.06 in 10.0 mi NNE 15.0 mph 20.7 mph N/A   Scattered Clouds
5:23 PM 62.6 °F 57.2 °F 82% 30.11 in 10.0 mi NNE 16.1 mph 33.4 mph N/A   Overcast
5:29 PM 62.6 °F 57.2 °F 82% 30.12 in 10.0 mi NNE 18.4 mph 32.2 mph N/A   Overcast
5:52 PM 59.0 °F 55.0 °F 87% 30.14 in 10.0 mi NE 21.9 mph 27.6 mph N/A   Overcast
6:52 PM 57.0 °F 53.1 °F 87% 30.15 in 10.0 mi NE 10.4 mph - N/A   Scattered Clouds
7:52 PM 55.0 °F 52.0 °F 89% 30.17 in 10.0 mi NNE 6.9 mph - N/A   Clear
8:52 PM 54.0 °F 51.1 °F 90% 30.17 in 10.0 mi Calm Calm - N/A   Clear
9:52 PM 51.1 °F 48.9 °F 92% 30.19 in 10.0 mi Calm Calm - N/A   Clear
10:52 PM 52.0 °F 50.0 °F 93% 30.19 in 10.0 mi NNW 3.5 mph - N/A   Clear
11:52 PM 51.1 °F 48.9 °F 92% 30.20 in 10.0 mi Calm Calm - N/A   Clear